Regional Weather Roundup
Issued by NWS

Home | Current Version | Previous Version | Text Only | Print | Product List | Glossary Off
Versions: 1 2 3 4 5 6 7 8 9 10 11 12 13 14 15 16 17 18 19 20 21 22 23 24 25 26 27 28 29 30 31 32 33 34 35 36 37 38 39 40 41 42 43 44 45 46 47 48 49 50

000
ASUS43 KOAX 030610
RWRNE

WEATHER ROUNDUP FOR NEBRASKA
NATIONAL WEATHER SERVICE OMAHA NE
100 AM CDT SUN MAY 03 2015

NOTES: SATELLITE DATA IS BEING USED TO AUGMENT CLOUD COVER ABOVE
       12000 FEET.
       "FAIR" INDICATES FEW OR NO CLOUDS BELOW 12,000 FEET WITH NO
       SIGNIFICANT WEATHER AND/OR OBSTRUCTIONS TO VISIBILITY.

  * THESE STATIONS DO NOT REPORT WEATHER SUCH AS RAIN...SNOW OR FOG.

NEZ001>004-019>022-054>056-030700-
NEBRASKA PANHANDLE

CITY           SKY/WX    TMP DP  RH WIND       PRES   REMARKS
SCOTTSBLUFF    CLOUDY    61  40  45 CALM      29.82R
6HR MIN TEMP:  58; 6HR MAX TEMP:  81;

ALLIANCE       MOCLDY    55  42  61 S8        29.79F
6HR MIN TEMP:  53; 6HR MAX TEMP:  80;

CHADRON        MOCLDY    52  41  66 CALM      29.76S
6HR MIN TEMP:  50; 6HR MAX TEMP:  80;

KIMBALL        CLOUDY    51  45  79 SW6       29.88F
SIDNEY         CLOUDY    53  44  71 SW12      29.87F
6HR MIN TEMP:  52; 6HR MAX TEMP:  70; 6HR PCP:  0.01;

$$

NEZ057>060-069>072-079>082-030700-
SOUTHWEST NEBRASKA

CITY           SKY/WX    TMP DP  RH WIND       PRES   REMARKS
NORTH PLATTE   MOCLDY    56  46  69 W3        29.76F
6HR MIN TEMP:  55; 6HR MAX TEMP:  80;

IMPERIAL       CLOUDY    63  40  42 SW5       29.79F
6HR MIN TEMP:  59; 6HR MAX TEMP:  81;

LEXINGTON      PTCLDY    66  48  51 W12       29.74R
MCCOOK         CLOUDY    64  44  48 W5        29.76F
6HR MIN TEMP:  64; 6HR MAX TEMP:  85;

OGALLALA       CLOUDY    60  44  56 W7        29.80R
$$

NEZ005>010-023>029-035>040-094-030700-
NORTH CENTRAL NEBRASKA

CITY           SKY/WX    TMP DP  RH WIND       PRES   REMARKS
VALENTINE      PTCLDY    56  44  64 W6        29.71R
6HR MIN TEMP:  54; 6HR MAX TEMP:  85;

AINSWORTH      PTCLDY    54  47  77 S6        29.70S
BROKEN BOW     MOCLDY    65  42  43 W10       29.72S
6HR MIN TEMP:  54; 6HR MAX TEMP:  85;

O`NEILL        CLEAR     65  48  53 SE8       29.71S
ORD            PTCLDY    59  47  64 SW3       29.69F
6HR MIN TEMP:  54; 6HR MAX TEMP:  85;

THEDFORD       MOCLDY    65  39  38 W14       29.74S
$$

NEZ041-046>049-061>064-073>077-083>087-030700-
SOUTH CENTRAL NEBRASKA

CITY           SKY/WX    TMP DP  RH WIND       PRES   REMARKS
GRAND ISLAND   PTCLDY    69  52  54 S17G25    29.72S
6HR MIN TEMP:  69; 6HR MAX TEMP:  84; 6HR PCP: TRACE;

AURORA         PTCLDY    64  54  68 E10       29.75R
HASTINGS       PTCLDY    69  51  52 S10       29.74S
6HR MIN TEMP:  69; 6HR MAX TEMP:  82;

HEBRON         PTCLDY    67  54  61 S14       29.77R
HOLDREGE       PTCLDY    66  48  51 S10       29.74F
KEARNEY *      PTCLDY    68  48  49 S15       29.73S
YORK           PTCLDY    68  55  64 S10       29.76S
$$

NEZ011>018-030>034-042>045-030700-
NORTHEAST NEBRASKA

CITY           SKY/WX    TMP DP  RH WIND       PRES   REMARKS
NORFOLK        MOCLDY    64  52  64 SE18      29.72R
6HR MIN TEMP:  64; 6HR MAX TEMP:  83; 6HR PCP:  0.02;

ALBION         CLEAR     60  54  80 SE12      29.72S
BLAIR          TSTM      61  56  84 SE10      29.84F
COLUMBUS *     MOCLDY    61  52  72 SE12      29.79R
FREMONT        TSTM      61  56  82 SE16      29.82S
TEKAMAH        CLOUDY    72  49  44 S30G43    29.71F
6HR MIN TEMP:  65; 6HR MAX TEMP:  74; 6HR PCP: TRACE;

WAYNE          MOCLDY    66  54  64 S14       29.71F
$$

NEZ050>053-065>068-078-088>093-030700-
SOUTHEAST NEBRASKA

CITY           SKY/WX    TMP DP  RH WIND       PRES   REMARKS
LINCOLN        CLOUDY    67  52  58 E15       29.83F
6HR MIN TEMP:  66; 6HR MAX TEMP:  81; 6HR PCP: TRACE;

OMAHA EPPLEY   TSTM      62  58  86 W6        29.87R
6HR MIN TEMP:  62; 6HR MAX TEMP:  72; 6HR PCP:  0.30;

BEATRICE       CLOUDY    68  53  58 S17       29.78S
FALLS CITY     CLOUDY    64  53  67 S7        29.83R
6HR MIN TEMP:  62; 6HR MAX TEMP:  75;

NEBRASKA CITY  CLOUDY    63  51  64 S9        29.82S THUNDER
PLATTSMOUTH    TSTM      61  55  81 NW14G25   29.90R
$$

NEZ044-045-051>053-067-030700-
OMAHA AREA

CITY           SKY/WX    TMP DP  RH WIND       PRES   REMARKS
OMAHA EPPLEY   TSTM      62  58  86 W6        29.87R
6HR MIN TEMP:  62; 6HR MAX TEMP:  72; 6HR PCP:  0.30;

BLAIR          TSTM      61  56  84 SE10      29.84F
FREMONT        TSTM      61  56  82 SE16      29.82S
MILLARD        TSTM      61  58  91 CALM      29.86F
OFFUTT AFB     TSTM      61  57  88 E6        29.86F FOG
PLATTSMOUTH    TSTM      61  55  81 NW14G25   29.90R
WAHOO          MOCLDY    61  55  78 E18       29.82F
$$


USA.gov is the U.S. government's official web portal to all federal, state and local government web resources and services.